Home   Weather   Escanaba   Past weeks
Flag for USA

Past Weather in Escanaba, Michigan, USA — Yesterday and Last 2 Weeks

Now
66 °F

Passing clouds.


Feels Like: 66 °F
Forecast: 66 / 49 °F
Wind: 8 mph from Northeast

Location: Escanaba Delta County Airport

Current Time: Jun 19, 2019 at 1:07:34 pm

Latest Report: Jun 19, 2019 at 11:56 am


Visibility: 10 mi

Pressure: 29.85 "Hg

Humidity: 65%

Dew Point: 54 °F

Location of EscanabaLocation

Past Weather in Escanaba — Graph

°F

Escanaba Temperature Yesterday

Maximum temperature yesterday: 67 °F (at 4:56 pm)
Minimum temperature yesterday: 55 °F (at 1:56 am)
Average temperature yesterday: 61 °F

High & Low Weather Summary for the Past Weeks

 TemperatureHumidityPressure
High74 °F (Jun 8, 5:56 pm)100% (Jun 9, 9:06 pm)30.16 "Hg (Jun 9, 9:06 pm)
Low42 °F (Jun 16, 2:56 am)28% (Jun 10, 5:56 pm)29.67 "Hg (Jun 14, 9:44 pm)
Average58 °F76%29.93 "Hg
* Reported Jun 4 11:56 am — Jun 19 11:56 am, Escanaba. Weather by CustomWeather, © 2019

Note: Actual official high and low records may vary slightly from our data, if they occured in-between our weather recording intervals... More about our weather records

Advertising

Escanaba Weather History for the Previous 24 Hours

Scroll right to see more
 ConditionsComfort  
Time TempWeatherWind HumidityBarometerVisibility
11:56 am
Wed, Jun 19
66 °FPassing clouds.8 mph65%29.85 "Hg10 mi
10:56 am63 °FSunny.10 mph65%29.87 "Hg10 mi
9:56 am61 °FSunny.9 mph72%29.88 "Hg10 mi
9:10 am57 °FScattered clouds.6 mph82%29.87 "Hg10 mi
8:56 am55 °FPartly sunny.7 mph87%29.88 "Hg10 mi
7:56 am53 °FLow clouds.7 mph89%29.88 "Hg10 mi
7:28 am52 °FLow clouds.7 mph94%29.88 "Hg10 mi
6:56 am51 °FLow clouds.6 mph96%29.88 "Hg10 mi
6:15 am52 °FLow clouds.7 mph88%29.89 "Hg10 mi
4:56 am48 °FFog.3 mph100%29.89 "Hg4 mi
4:25 am48 °FFog.5 mph94%29.88 "Hg3 mi
3:56 am47 °FLow clouds.6 mph97%29.90 "Hg7 mi
3:34 am46 °FPassing clouds.6 mph93%29.88 "Hg10 mi
2:56 am48 °FClear.3 mph89%29.90 "Hg10 mi
1:56 am50 °FClear.5 mph89%29.91 "Hg10 mi
12:56 am52 °FClear.3 mph89%29.90 "Hg10 mi
11:56 pm
Tue, Jun 18
55 °FClear.5 mph90%29.90 "Hg10 mi
10:56 pm57 °FPassing clouds.5 mph93%29.90 "Hg10 mi
9:56 pm59 °FPassing clouds.5 mph90%29.89 "Hg10 mi
8:56 pm63 °FPassing clouds.5 mph75%29.88 "Hg10 mi
7:56 pm64 °FScattered clouds.5 mph78%29.88 "Hg10 mi
6:56 pm62 °FLight rain. More clouds than sun.6 mph86%29.88 "Hg10 mi
5:56 pm64 °FOvercast.10 mph84%29.89 "Hg10 mi
5:35 pm66 °FMostly cloudy.8 mph73%29.88 "Hg10 mi
4:56 pm67 °FPassing clouds.10 mph73%29.87 "Hg10 mi
4:35 pm66 °FThundershowers. Scattered clouds.13 mph73%29.87 "Hg10 mi
3:56 pm64 °FPartly sunny.9 mph75%29.89 "Hg10 mi
2:56 pm66 °FPassing clouds.13 mph70%29.90 "Hg10 mi
1:56 pm64 °FScattered clouds.14 mph73%29.92 "Hg10 mi
Weather by CustomWeather, © 2019

See weather overview